Regional Weather Roundup
Issued by NWS

Home | Current Version | Previous Version | Graphics & Text | Print | Product List | Glossary On
Versions: 1 2 3 4 5 6 7 8 9 10 11 12 13 14 15 16 17 18 19 20 21 22 23 24 25 26 27 28 29 30 31 32 33 34 35 36 37 38 39 40 41 42 43 44 45 46 47 48 49 50
000
ASUS43 KBIS 290220
RWRND

NORTH DAKOTA REGIONAL WEATHER ROUNDUP
NATIONAL WEATHER SERVICE BISMARCK ND
800 PM CST WED JAN 28 2015

NOTE: "FAIR" INDICATES FEW OR NO CLOUDS BELOW 12,000 FEET WITH NO
SIGNIFICANT WEATHER AND/OR OBSTRUCTIONS TO VISIBILITY.


NDZ001>003-009>011-017-290300-
NORTHWEST NORTH DAKOTA

CITY           SKY/WX    TMP DP  RH WIND       PRES   REMARKS
WILLISTON      CLOUDY    34  29  82 NW13      30.23R
MINOT          CLOUDY    29  25  85 NW23G31   30.13R WCI  15
MINOT AFB      CLOUDY    29  29  99 NW22      30.13R WCI  15
$$

NDZ018>021-031>035-040>046-290300-
SOUTHWEST NORTH DAKOTA

CITY           SKY/WX    TMP DP  RH WIND       PRES   REMARKS
BISMARCK       CLOUDY    32  27  81 NW20G33   30.13R
DICKINSON      CLOUDY    32  27  81 NW30G41   30.18R WCI  18
GARRISON         N/A     31  28  89 NW24G37   30.13R WCI  17
HETTINGER ARPT CLOUDY    33  28  81 NW22G32   30.18R
$$

NDZ004>008-012>016-024-026-027-054-290300-
NORTHEAST NORTH DAKOTA

CITY           SKY/WX    TMP DP  RH WIND       PRES   REMARKS
GRAND FORKS    CLOUDY    28  25  86 NW23G31   29.98R WCI  14
GRND FRKS AFB  CLOUDY    28  26  90 NW16      29.99R WCI  16
DEVILS LAKE    MOCLDY    25  19  80 NW17G26   30.04R WCI  11
$$

NDZ022-023-025-028>030-036>039-047>053-290300-
SOUTHEAST NORTH DAKOTA

CITY           SKY/WX    TMP DP  RH WIND       PRES   REMARKS
FARGO          CLOUDY    33  30  88 N24G31    29.93R
JAMESTOWN      CLOUDY    30  27  88 NW24G31   30.00R WCI  16
$$



USA.gov is the U.S. government's official web portal to all federal, state and local government web resources and services.